• In Romania
  • List of Countries
  • For 7 days
  • Water Temperature
  • Satellite Maps
  • Weather Map
  • Weather Widgets
  • user-avatar
    Login

    Hourly Weather Ondjiwa

    Today, 17 January, Tuesday

    Time Temperature Precipitation Wind Pressure Humidity
    00:00 +26°C° 0.8 mm 1 mps 665 mmHg 68%
    01:00 +25°C° 0.8 mm 2 mps 665 mmHg 71%
    02:00 +25°C° 0.9 mm 2 mps 665 mmHg 72%
    03:00 +25°C° 0.9 mm 1 mps 665 mmHg 74%
    04:00 +24°C° 0.9 mm 1 mps 665 mmHg 75%
    05:00 +24°C° 0 mm 2 mps 665 mmHg 74%
    06:00 +24°C° 0 mm 2 mps 665 mmHg 73%
    07:00 +25°C° 0 mm 2 mps 665 mmHg 72%
    08:00 +27°C° 0 mm 2 mps 666 mmHg 63%
    09:00 +29°C° 0 mm 1 mps 666 mmHg 54%
    10:00 +31°C° 0 mm 1 mps 667 mmHg 46%
    11:00 +32°C° 0 mm 2 mps 667 mmHg 42%
    12:00 +34°C° 0 mm 2 mps 666 mmHg 37%
    13:00 +35°C° 0 mm 3 mps 666 mmHg 33%
    14:00 +34°C° 0.1 mm 3 mps 666 mmHg 35%
    15:00 +34°C° 0.1 mm 2 mps 665 mmHg 36%
    16:00 +32°C° 0.1 mm 2 mps 665 mmHg 38%
    17:00 +31°C° 0.1 mm 2 mps 665 mmHg 42%
    18:00 +30°C° 0.1 mm 1 mps 664 mmHg 47%
    19:00 +29°C° 0.1 mm 1 mps 664 mmHg 52%
    20:00 +28°C° 0.1 mm 2 mps 665 mmHg 56%
    21:00 +27°C° 0.1 mm 2 mps 665 mmHg 60%
    22:00 +26°C° 0.1 mm 3 mps 665 mmHg 65%
    23:00 +25°C° 0.3 mm 2 mps 665 mmHg 69%

    Tomorrow, 18 January, Wednesday

    Time Temperature Precipitation Wind Pressure Humidity
    00:00 +24°C° 0.3 mm 2 mps 665 mmHg 74%
    01:00 +23°C° 0.3 mm 2 mps 665 mmHg 78%
    02:00 +23°C° 0.9 mm 2 mps 665 mmHg 81%
    03:00 +21°C° 0.9 mm 2 mps 665 mmHg 83%
    04:00 +21°C° 0.9 mm 2 mps 665 mmHg 86%
    05:00 +22°C° 0.1 mm 1 mps 665 mmHg 83%
    06:00 +23°C° 0.1 mm 1 mps 666 mmHg 81%
    07:00 +23°C° 0.1 mm 1 mps 666 mmHg 79%
    08:00 +25°C° 0 mm 1 mps 667 mmHg 68%
    09:00 +27°C° 0 mm 2 mps 667 mmHg 57%
    10:00 +29°C° 0 mm 3 mps 668 mmHg 47%
    11:00 +31°C° 0 mm 3 mps 667 mmHg 42%
    12:00 +33°C° 0 mm 3 mps 667 mmHg 38%
    13:00 +34°C° 0 mm 4 mps 667 mmHg 33%
    14:00 +34°C° 0 mm 4 mps 666 mmHg 34%
    15:00 +34°C° 0 mm 4 mps 665 mmHg 34%
    16:00 +34°C° 0 mm 4 mps 665 mmHg 34%
    17:00 +31°C° 0 mm 3 mps 665 mmHg 40%
    18:00 +29°C° 0 mm 3 mps 665 mmHg 46%
    19:00 +28°C° 0 mm 3 mps 665 mmHg 52%
    20:00 +27°C° 0.3 mm 3 mps 666 mmHg 56%
    21:00 +26°C° 0.3 mm 3 mps 666 mmHg 61%
    22:00 +25°C° 0.3 mm 3 mps 667 mmHg 65%
    23:00 +24°C° 0.2 mm 2 mps 666 mmHg 68%

    Day after tomorrow, 19 January, Thursday

    Time Temperature Precipitation Wind Pressure Humidity
    00:00 +24°C° 0.2 mm 2 mps 666 mmHg 70%
    01:00 +23°C° 0.2 mm 2 mps 666 mmHg 73%
    02:00 +23°C° 0.3 mm 2 mps 666 mmHg 75%
    03:00 +21°C° 0.3 mm 2 mps 665 mmHg 78%
    04:00 +22°C° 0.3 mm 1 mps 665 mmHg 81%
    05:00 +22°C° 0.1 mm 1 mps 666 mmHg 79%
    06:00 +23°C° 0.1 mm 1 mps 667 mmHg 77%
    07:00 +23°C° 0.1 mm 1 mps 667 mmHg 76%
    08:00 +25°C° 0.2 mm 2 mps 668 mmHg 68%
    09:00 +26°C° 0.2 mm 2 mps 668 mmHg 60%
    10:00 +28°C° 0.2 mm 2 mps 668 mmHg 53%
    11:00 +29°C° 0.1 mm 2 mps 668 mmHg 48%
    12:00 +31°C° 0.1 mm 2 mps 667 mmHg 43%
    13:00 +32°C° 0.1 mm 1 mps 667 mmHg 38%
    14:00 +32°C° 0 mm 1 mps 667 mmHg 38%
    15:00 +32°C° 0 mm 1 mps 666 mmHg 38%
    16:00 +32°C° 0 mm 1 mps 666 mmHg 37%
    17:00 +31°C° 0.1 mm 1 mps 666 mmHg 42%
    18:00 +29°C° 0.1 mm 1 mps 666 mmHg 46%
    19:00 +28°C° 0.1 mm 1 mps 666 mmHg 51%
    20:00 +27°C° 0.4 mm 1 mps 666 mmHg 54%
    21:00 +27°C° 0.4 mm 1 mps 667 mmHg 58%
    22:00 +26°C° 0.4 mm 2 mps 667 mmHg 61%
    23:00 +25°C° 0.3 mm 2 mps 667 mmHg 65%

    20 January, Friday

    Time Temperature Precipitation Wind Pressure Humidity
    00:00 +24°C° 0.3 mm 2 mps 666 mmHg 70%
    01:00 +23°C° 0.3 mm 2 mps 666 mmHg 74%
    02:00 +23°C° 0.1 mm 2 mps 666 mmHg 76%
    03:00 +23°C° 0.1 mm 2 mps 666 mmHg 77%
    04:00 +21°C° 0.1 mm 2 mps 665 mmHg 79%
    05:00 +23°C° 0 mm 2 mps 666 mmHg 77%
    06:00 +23°C° 0 mm 2 mps 667 mmHg 74%
    07:00 +24°C° 0 mm 2 mps 667 mmHg 72%
    08:00 +26°C° 0 mm 2 mps 668 mmHg 61%
    09:00 +29°C° 0 mm 2 mps 668 mmHg 51%
    10:00 +31°C° 0 mm 2 mps 668 mmHg 40%
    11:00 +32°C° 0 mm 2 mps 668 mmHg 37%
    12:00 +32°C° 0 mm 1 mps 667 mmHg 34%
    13:00 +33°C° 0 mm 1 mps 666 mmHg 31%
    14:00 +33°C° 0 mm 1 mps 666 mmHg 30%
    15:00 +33°C° 0 mm 1 mps 666 mmHg 29%
    16:00 +34°C° 0 mm 2 mps 665 mmHg 28%
    17:00 +32°C° 0 mm 1 mps 665 mmHg 32%
    18:00 +30°C° 0 mm 1 mps 665 mmHg 36%
    19:00 +29°C° 0 mm 1 mps 665 mmHg 39%
    20:00 +28°C° 0 mm 1 mps 666 mmHg 40%
    21:00 +27°C° 0 mm 1 mps 666 mmHg 41%
    22:00 +27°C° 0 mm 1 mps 666 mmHg 42%
    23:00 +26°C° 0 mm 2 mps 666 mmHg 46%

    21 January, Saturday

    Time Temperature Precipitation Wind Pressure Humidity
    00:00 +25°C° 0 mm 2 mps 665 mmHg 50%
    01:00 +25°C° 0 mm 3 mps 665 mmHg 54%
    02:00 +24°C° 0 mm 3 mps 665 mmHg 58%
    03:00 +22°C° 0 mm 3 mps 665 mmHg 63%
    04:00 +23°C° 0 mm 2 mps 665 mmHg 67%
    05:00 +23°C° 0 mm 2 mps 665 mmHg 65%
    06:00 +24°C° 0 mm 2 mps 666 mmHg 63%
    07:00 +24°C° 0 mm 2 mps 666 mmHg 61%
    08:00 +27°C° 0 mm 2 mps 667 mmHg 52%
    09:00 +29°C° 0 mm 3 mps 667 mmHg 43%
    10:00 +33°C° 0 mm 3 mps 668 mmHg 33%
    11:00 +35°C° 0 mm 2 mps 667 mmHg 28%
    12:00 +36°C° 0 mm 1 mps 667 mmHg 23%
    13:00 +39°C° 0 mm 1 mps 667 mmHg 18%
    14:00 +37°C° 0 mm 1 mps 666 mmHg 20%
    15:00 +34°C° 0 mm 0 mps 666 mmHg 21%
    16:00 +33°C° 0 mm 0 mps 665 mmHg 23%
    17:00 +33°C° 0 mm 1 mps 665 mmHg 25%
    18:00 +32°C° 0 mm 1 mps 665 mmHg 27%
    19:00 +31°C° 0 mm 1 mps 665 mmHg 30%
    20:00 +30°C° 0 mm 1 mps 665 mmHg 31%
    21:00 +29°C° 0 mm 1 mps 665 mmHg 32%
    22:00 +28°C° 0 mm 2 mps 666 mmHg 34%
    23:00 +28°C° 0 mm 2 mps 666 mmHg 37%

    22 January, Sunday

    Time Temperature Precipitation Wind Pressure Humidity
    00:00 +27°C° 0 mm 2 mps 666 mmHg 41%
    01:00 +27°C° 0 mm 3 mps 665 mmHg 45%
    02:00 +26°C° 0 mm 3 mps 665 mmHg 47%
    03:00 +25°C° 0 mm 3 mps 665 mmHg 49%
    04:00 +25°C° 0 mm 3 mps 665 mmHg 51%
    05:00 +25°C° 0 mm 3 mps 666 mmHg 50%
    06:00 +25°C° 0 mm 3 mps 666 mmHg 50%
    07:00 +25°C° 0 mm 3 mps 667 mmHg 50%
    08:00 +27°C° 0 mm 3 mps 667 mmHg 44%
    09:00 +30°C° 0 mm 3 mps 667 mmHg 38%
    10:00 +32°C° 0 mm 2 mps 668 mmHg 32%
    11:00 +35°C° 0 mm 2 mps 668 mmHg 28%
    12:00 +36°C° 0 mm 1 mps 667 mmHg 25%
    13:00 +39°C° 0 mm 1 mps 667 mmHg 21%
    14:00 +37°C° 0 mm 1 mps 667 mmHg 22%
    15:00 +36°C° 0 mm 1 mps 666 mmHg 23%
    16:00 +35°C° 0 mm 1 mps 665 mmHg 25%
    17:00 +34°C° 0 mm 1 mps 665 mmHg 27%
    18:00 +32°C° 0 mm 1 mps 665 mmHg 30%
    19:00 +31°C° 0 mm 1 mps 665 mmHg 33%
    20:00 +30°C° 0.1 mm 1 mps 666 mmHg 37%
    21:00 +29°C° 0.1 mm 1 mps 666 mmHg 41%
    22:00 +28°C° 0.1 mm 2 mps 666 mmHg 45%
    23:00 +28°C° 0.1 mm 2 mps 666 mmHg 47%
    Show more